Weather History for Champaign, IL

Change the Weather History Date:

Friday, October 4, 2013

  Actual Average Record
Temperature  
Mean Temperature 77 °F 58 °F  
Max Temperature 89 °F 70 °F 90 °F (2005)
Min Temperature 64 °F 46 °F 34 °F (2010)
Degree Days  
Heating Degree Days 0 8  
Month to date heating degree days 0 31  
Since 1 July heating degree days 43 123  
Cooling Degree Days 12 1  
Month to date cooling degree days 35 5  
Year to date cooling degree days 1057 930  
Growing Degree Days 26 (Base 50)    
Moisture  
Dew Point 66 °F    
Average Humidity 69    
Maximum Humidity 93    
Minimum Humidity 44    
Precipitation  
Precipitation 0.00 in 0.11 in 0.74 in (2000)
Month to date precipitation 0.32 0.40  
Year to date precipitation 25.08 30.96  
Sea Level Pressure  
Sea Level Pressure 29.97 in    
Wind  
Wind Speed 9 mph (South)    
Max Wind Speed 16 mph    
Max Gust Speed 23 mph    
Visibility 10 miles    
Events      
T = Trace of Precipitation, MM = Missing Value Source: NWS Daily Summary

Daily Weather History Graph

Daily Weather History Graph

Search for Another Location

Airport:

Trip Planner

Search our weather history database for the weather conditions in past years. The results will help you decide how hot, cold, wet, or windy it might be!

Date:

Astronomy

Oct. 04, 2013 Rise Set
Actual Time 6:52 AM CDT 6:30 PM CDT
Civil Twilight 6:25 AM CDT 6:57 PM CDT
Nautical Twilight 5:54 AM CDT 7:28 PM CDT
Astronomical Twilight 5:22 AM CDT 8:00 PM CDT
Moon 6:27 AM CDT (10/4) 6:12 PM CDT (10/4)
Length of Visible Light 12h 31m
Length of Day
11h 37m
Waning Crescent, 0% of the Moon is Illuminated
Oct 4
Waning Crescent
Oct 4
New
Oct 11
First Quarter
Oct 18
Full
Oct 26
Last Quarter

Hourly Weather History & Observations

Time (CDT) Temp. Heat Index Dew Point Humidity Pressure Visibility Wind Dir Wind Speed Gust Speed Precip Events Conditions
12:53 AM 64.0 °F - 63.0 °F 96% 29.96 in 10.0 mi SSE 6.9 mph - N/A   Clear
1:53 AM 66.9 °F - 63.0 °F 87% 29.97 in 10.0 mi SSE 9.2 mph - N/A   Clear
2:53 AM 66.0 °F - 63.0 °F 90% 29.96 in 10.0 mi South 8.1 mph - N/A   Clear
3:53 AM 68.0 °F - 64.0 °F 87% 29.96 in 10.0 mi South 8.1 mph - N/A   Mostly Cloudy
4:53 AM 66.9 °F - 64.0 °F 90% 29.97 in 10.0 mi South 6.9 mph - N/A   Scattered Clouds
5:53 AM 66.9 °F - 64.9 °F 93% 29.98 in 10.0 mi South 6.9 mph - N/A   Clear
6:53 AM 66.9 °F - 64.9 °F 93% 30.00 in 10.0 mi South 8.1 mph - N/A   Clear
7:53 AM 69.1 °F - 66.0 °F 90% 29.99 in 10.0 mi South 9.2 mph - N/A   Clear
8:53 AM 73.0 °F - 69.1 °F 87% 30.00 in 10.0 mi SSW 12.7 mph - N/A   Clear
9:53 AM 77.0 °F - 70.0 °F 79% 30.00 in 10.0 mi SSW 12.7 mph - N/A   Clear
10:53 AM 80.1 °F 82.9 °F 69.1 °F 69% 30.00 in 10.0 mi SW 9.2 mph 18.4 mph N/A   Mostly Cloudy
11:53 AM 81.0 °F 83.8 °F 68.0 °F 65% 30.00 in 10.0 mi SSW 9.2 mph - N/A   Scattered Clouds
12:53 PM 82.9 °F 85.4 °F 66.9 °F 58% 29.99 in 10.0 mi SW 10.4 mph - N/A   Mostly Cloudy
1:53 PM 87.1 °F 89.9 °F 66.9 °F 51% 29.96 in 10.0 mi SW 11.5 mph 20.7 mph N/A   Mostly Cloudy
2:53 PM 89.1 °F 91.0 °F 64.9 °F 45% 29.94 in 10.0 mi SSW 13.8 mph 19.6 mph N/A   Partly Cloudy
3:53 PM 87.1 °F 88.3 °F 64.0 °F 46% 29.93 in 10.0 mi South 10.4 mph - N/A   Partly Cloudy
4:53 PM 86.0 °F 87.6 °F 64.9 °F 49% 29.93 in 10.0 mi South 12.7 mph - N/A   Scattered Clouds
5:53 PM 84.0 °F 86.3 °F 66.0 °F 55% 29.94 in 10.0 mi South 9.2 mph - N/A   Partly Cloudy
6:53 PM 79.0 °F - 66.0 °F 64% 29.95 in 10.0 mi South 9.2 mph - N/A   Clear
7:53 PM 77.0 °F - 66.0 °F 69% 29.96 in 10.0 mi South 8.1 mph - N/A   Clear
9:53 PM 72.0 °F - 66.0 °F 81% 29.99 in 10.0 mi SE 6.9 mph - N/A   Scattered Clouds
10:53 PM 73.9 °F - 66.9 °F 79% 29.98 in 10.0 mi South 9.2 mph - N/A   Clear
11:53 PM 73.0 °F - 66.9 °F 81% 29.97 in 10.0 mi SSE 10.4 mph - N/A   Partly Cloudy